Location: Newark
(48.3453°N, 0.5589°E)
Time: 19:48:03
(UTC+00:00)

Altair - All Passes

Search period start: 05 December 2019 00:00
Search period end: 15 December 2019 00:00
Orbit: 1502 x 1682 km, 47.2° (Epoch: 05 December)

Date Brightness Start Highest point End Pass type
(mag) Time Alt. Az. Time Alt. Az. Time Alt. Az.
05 Dec - 01:28:22 10° W 01:37:39 85° S 01:46:52 10° E visible
05 Dec - 03:33:04 10° WNW 03:42:06 64° SSW 03:51:09 10° SE visible
05 Dec - 05:38:14 10° W 05:45:30 27° SW 05:52:52 10° S visible
05 Dec - 20:57:06 10° S 21:04:37 27° SE 21:11:57 10° E night (unlit)
05 Dec - 22:58:50 10° SW 23:08:04 63° SSE 23:17:05 10° ENE night (unlit)
06 Dec - 01:03:11 10° W 01:12:30 85° S 01:21:43 10° E visible
06 Dec - 03:07:54 10° WNW 03:16:59 66° SSW 03:26:04 10° ESE visible
06 Dec - 05:12:58 10° W 05:20:29 30° SW 05:28:04 10° SSE visible
06 Dec - 20:32:21 10° S 20:39:35 25° SE 20:46:40 10° E visible
06 Dec - 22:33:45 10° SW 22:42:57 61° SSE 22:51:56 10° ENE night (unlit)
07 Dec - 00:38:00 10° W 00:47:21 85° S 00:56:33 10° E visible
07 Dec - 02:42:44 10° WNW 02:51:52 69° SSW 03:00:58 10° ESE visible
07 Dec - 04:47:42 10° W 04:55:27 32° SW 05:03:14 10° SSE visible
07 Dec - 20:07:36 10° S 20:14:33 23° SE 20:21:21 10° E visible
07 Dec - 22:08:40 10° SW 22:17:50 58° SSE 22:26:47 10° ENE night (unlit)
08 Dec - 00:12:49 10° W 00:22:11 84° S 00:31:24 10° E night (unlit)
08 Dec - 02:17:34 10° W 02:26:44 71° SSW 02:35:51 10° ESE visible
08 Dec - 04:22:29 10° WNW 04:30:25 34° SW 04:38:23 10° SSE visible
08 Dec - 19:42:56 10° S 19:49:32 21° SE 19:56:00 10° E visible
08 Dec - 21:43:35 10° SW 21:52:44 55° SSE 22:01:38 10° ENE visible
08 Dec - 23:47:38 10° W 23:57:02 83° S 00:06:14 10° E night (unlit)
09 Dec - 01:52:24 10° W 02:01:36 73° SSW 02:10:45 10° ESE visible
09 Dec - 03:57:16 10° WNW 04:05:22 37° SW 04:13:30 10° SSE visible
09 Dec - 19:18:19 10° S 19:24:32 19° SE 19:30:36 10° E visible
09 Dec - 21:18:32 10° SW 21:27:38 52° SSE 21:36:29 10° ENE visible
09 Dec - 23:22:27 10° WSW 23:31:53 83° S 23:41:05 10° E night (unlit)
10 Dec - 01:27:13 10° W 01:36:29 75° SSW 01:45:37 10° ESE visible
10 Dec - 03:32:03 10° WNW 03:40:19 39° SW 03:48:35 10° SSE visible
10 Dec - 05:41:03 10° WSW 05:42:51 11° WSW 05:44:39 10° SW visible
10 Dec - 18:53:46 10° SSE 18:59:31 18° SE 19:05:09 10° E visible
10 Dec - 20:53:29 10° SW 21:02:32 50° SSE 21:11:19 10° ENE visible
10 Dec - 22:57:16 10° WSW 23:06:43 81° S 23:15:56 10° E night (unlit)
11 Dec - 01:02:03 10° W 01:11:20 77° SSW 01:20:30 10° ESE visible
11 Dec - 03:06:51 10° WNW 03:15:15 42° SW 03:23:39 10° SSE visible
11 Dec - 05:14:38 10° WSW 05:17:53 12° WSW 05:21:08 10° SW visible
11 Dec - 18:29:19 10° SSE 18:34:31 16° SE 18:39:37 10° E visible
11 Dec - 20:28:27 10° SW 20:37:27 47° SE 20:46:10 10° ENE visible
11 Dec - 22:32:05 10° WSW 22:41:34 80° S 22:50:47 10° E visible
12 Dec - 00:36:52 10° W 00:46:12 79° SSW 00:55:22 10° ESE night (unlit)
12 Dec - 02:41:39 10° WNW 02:50:12 45° SW 02:58:42 10° SSE visible
12 Dec - 04:48:45 10° W 04:52:55 14° SW 04:57:05 10° SSW visible
12 Dec - 18:05:00 10° SSE 18:09:31 14° SE 18:13:58 10° E visible
12 Dec - 20:03:27 10° SSW 20:12:21 44° SE 20:21:00 10° ENE visible
12 Dec - 22:06:54 10° WSW 22:16:25 79° SSE 22:25:38 10° E visible
13 Dec - 00:11:40 10° W 00:21:03 81° S 00:30:14 10° ESE night (unlit)
13 Dec - 02:16:27 10° WNW 02:25:07 47° SW 02:33:44 10° SE visible
13 Dec - 04:23:04 10° W 04:27:56 16° SW 04:32:49 10° SSW visible
13 Dec - 17:40:52 10° SSE 17:44:32 13° SE 17:48:08 10° E visible
13 Dec - 19:38:26 10° SSW 19:47:16 42° SE 19:55:49 10° ENE visible
13 Dec - 21:41:44 10° WSW 21:51:15 77° SSE 22:00:29 10° E visible
13 Dec - 23:46:29 10° W 23:55:53 82° S 00:05:05 10° ESE night (unlit)
14 Dec - 01:51:16 10° WNW 02:00:03 50° SSW 02:08:44 10° SE visible
14 Dec - 03:57:31 10° W 04:02:58 17° SW 04:08:25 10° SSW visible
14 Dec - 17:17:09 10° SE 17:19:33 11° ESE 17:21:55 10° ESE visible
14 Dec - 19:13:28 10° SSW 19:22:11 39° SE 19:30:38 10° ENE visible
14 Dec - 21:16:33 10° WSW 21:26:06 75° SSE 21:35:21 10° E visible
14 Dec - 23:21:17 10° W 23:30:45 83° S 23:39:56 10° ESE night (unlit)
